User: anonymous   Login
Location: Tyler Bend Campground
(35.9875°N, 92.7606°W)
Time: 02:55:16
(UTC-06:00)
Language:

CZ-2C R/B - Orbit

View from above orbital plane
View from above orbital plane
View from above satellite
View from above satellite

Ground track
Ground track

The orbit data is extracted from the following two-line orbital elements,

1 36089U 09061B   17056.96841884 +.00000127 +00000-0 +42813-4 0  9991
2 36089 098.0514 063.7096 0082706 029.1015 027.1915 14.49642466385509
Epoch (UTC): 25 February 2017 23:14:31
Eccentricity: 0.0082706
inclination: 98.0514°
perigee height: 668 km
apogee height: 785 km
right ascension of ascending node: 63.7096°
argument of perigee: 29.1015°
revolutions per day: 14.49642466
mean anomaly at epoch: 27.1915°
orbit number at epoch: 38550

The dashed part of the orbit path shows where the satellite is in the earth's shadow,  

DLR